Simultaneous Nadir Overpasses (SNOs) Predictions

Prediction of SNOs between NOAA-20 and TERRA Satellite Orbit:

Table of predicted SNOs for the next 14.0 days since TLE Epoch: 8/10/2024
Index Date (NOAA-20) Time (NOAA-20) Lat,Lon (NOAA-20) SZA (NOAA-20 ) Date (TERRA) Time (TERRA) Lat,Lon (TERRA) SZA (TERRA ) Distance(km) Time Diff (sec)
1 08/11/2024 12:15:21 -72.97, 167.40 121.86 08/11/2024 12:16:31 -72.86, 168.89 122.07 50.43 70
2 08/11/2024 13:05:57 72.46, -24.26 57.60 08/11/2024 13:05:59 72.45, -24.20 57.58 2.45 2
3 08/11/2024 13:56:36 -72.21, 143.55 122.67 08/11/2024 13:55:24 -72.25, 143.11 122.59 15.53 72
4 08/14/2024 00:18:22 72.50, 167.55 58.39 08/14/2024 00:18:56 72.52, 167.65 58.39 3.57 34
5 08/14/2024 01:09:04 -72.40, -24.93 121.72 08/14/2024 01:08:20 -72.38, -24.95 121.73 2.82 44
6 08/16/2024 11:30:46 72.51, -0.56 59.16 08/16/2024 11:31:53 72.52, -0.62 59.16 2.35 67
7 08/16/2024 12:21:29 -72.45, 166.87 120.89 08/16/2024 12:21:16 -72.44, 166.89 120.91 1.82 13
8 08/16/2024 13:11:57 71.54, -24.10 58.14 08/16/2024 13:10:52 71.58, -26.92 58.34 99.16 65
9 08/18/2024 23:33:53 -72.47, -1.27 120.09 08/18/2024 23:34:11 -72.49, -1.30 120.07 2.33 18
10 08/19/2024 00:24:37 72.38, 166.21 59.84 08/19/2024 00:23:33 72.38, 166.18 59.85 0.91 64
11 08/21/2024 10:46:18 -72.55,-169.53 119.19 08/21/2024 10:47:05 -72.52,-169.49 119.23 2.89 47
12 08/21/2024 11:37:00 72.42, -1.97 60.68 08/21/2024 11:36:26 72.41, -2.03 60.69 2.14 34
13 08/23/2024 21:58:44 -72.74, 21.96 118.15 08/23/2024 21:59:55 -72.66, 22.49 118.28 19.89 71
14 08/23/2024 22:49:24 72.47,-170.17 61.57 08/23/2024 22:49:18 72.49,-170.15 61.58 2.12 6



Historial Predications of SNOs between NOAA-20 and TERRA
